User: anonymous   Login
Location: Kaiser
(34.0939°N, 117.4889°W)
Time: 11:44:13
(UTC+00:00)
Language:

Cosmos 2278 - Orbit

View from above orbital plane
View from above orbital plane
View from above satellite
View from above satellite

Ground track
Ground track

The orbit data is extracted from the following two-line orbital elements,

1 23087U 94023A   21023.00375246 -.00000309  00000-0 -13821-3 0  9995
2 23087  71.0548 128.7553 0009228 348.6095  11.4817 14.13821254380479
Epoch (UTC): 23 January 2021 00:05:24
Eccentricity: 0.0009228
inclination: 71.0548°
perigee height: 839 km
apogee height: 853 km
right ascension of ascending node: 128.7553°
argument of perigee: 348.6095°
revolutions per day: 14.13821254
mean anomaly at epoch: 11.4817°
orbit number at epoch: 38047

The dashed part of the orbit path shows where the satellite is in the earth's shadow,  

DLR